N890Q MYNN-KTPA

Flight info

Callsign N890Q
Flight time 1h 17m
Altitude 32000
Route PEACH Y421 OCTAL BLFRG3
Aircraft P180/L-SBDFGM3RWXY/LB1

Departure

Time 2026-05-05 23:57
Airport Lynden Pindling International Airport (MYNN)

Arrival

Time 2026-05-06 01:14
Airport Tampa International Airport (KTPA)
Time Latitude Longitude Altitude Speed Heading
2026-05-05 23:40 25.05113 -77.46950 6 ft 0 kts 131°
2026-05-05 23:52 25.05107 -77.46951 6 ft 1 kts 206°
2026-05-05 23:52 25.05101 -77.46971 6 ft 5 kts 251°
2026-05-05 23:52 25.05088 -77.47017 6 ft 8 kts 259°
2026-05-05 23:52 25.05068 -77.47083 6 ft 10 kts 245°
2026-05-05 23:53 25.05057 -77.47159 6 ft 10 kts 289°
2026-05-05 23:53 25.05107 -77.47221 6 ft 12 kts 315°
2026-05-05 23:53 25.05176 -77.47298 6 ft 16 kts 315°
2026-05-05 23:53 25.05224 -77.47400 7 ft 16 kts 270°
2026-05-05 23:54 25.05219 -77.47431 7 ft 0 kts 252°
2026-05-05 23:56 25.05209 -77.47463 7 ft 8 kts 249°
2026-05-05 23:56 25.05158 -77.47520 6 ft 14 kts 169°
2026-05-05 23:56 25.05035 -77.47406 5 ft 63 kts 134°
2026-05-05 23:57 25.04472 -77.46764 329 ft 143 kts 138°
2026-05-05 23:57 25.03709 -77.45967 1405 ft 154 kts 140°
2026-05-05 23:57 25.02906 -77.45139 2108 ft 172 kts 139°
2026-05-05 23:57 25.01987 -77.44201 2827 ft 187 kts 139°
2026-05-05 23:58 25.01239 -77.42946 3434 ft 206 kts 107°
2026-05-05 23:58 25.01300 -77.41383 4025 ft 211 kts 68°
2026-05-05 23:58 25.02270 -77.40212 4569 ft 211 kts 24°
2026-05-05 23:58 25.03680 -77.40108 5164 ft 204 kts 342°
2026-05-05 23:59 25.04856 -77.40883 5862 ft 194 kts 313°
2026-05-05 23:59 25.05680 -77.42004 6623 ft 187 kts 304°
2026-05-05 23:59 25.06455 -77.43145 7293 ft 184 kts 303°
2026-05-05 23:59 25.07202 -77.44243 8043 ft 177 kts 303°
2026-05-06 00:00 25.07928 -77.45304 8831 ft 168 kts 303°
2026-05-06 00:00 25.08619 -77.46300 9646 ft 159 kts 302°
2026-05-06 00:00 25.09274 -77.47229 10407 ft 148 kts 302°
2026-05-06 00:00 25.09889 -77.48083 11155 ft 135 kts 303°
2026-05-06 00:01 25.10450 -77.48841 11900 ft 119 kts 303°
2026-05-06 00:01 25.10959 -77.49507 12516 ft 114 kts 303°
2026-05-06 00:01 25.11490 -77.50208 12878 ft 125 kts 303°
2026-05-06 00:01 25.12082 -77.51009 13239 ft 146 kts 303°
2026-05-06 00:02 25.12752 -77.51936 13629 ft 163 kts 304°
2026-05-06 00:02 25.13472 -77.52974 13998 ft 177 kts 299°
2026-05-06 00:02 25.14137 -77.54178 14343 ft 190 kts 301°
2026-05-06 00:02 25.15028 -77.55292 14685 ft 203 kts 315°
2026-05-06 00:03 25.16190 -77.56256 15030 ft 214 kts 321°
2026-05-06 00:03 25.17443 -77.57199 15373 ft 221 kts 322°
2026-05-06 00:03 25.18720 -77.58185 15712 ft 226 kts 321°
2026-05-06 00:03 25.20014 -77.59209 16059 ft 231 kts 321°
2026-05-06 00:04 25.21331 -77.60247 16397 ft 234 kts 321°
2026-05-06 00:04 25.22663 -77.61294 16778 ft 235 kts 321°
2026-05-06 00:04 25.23990 -77.62336 17202 ft 234 kts 322°
2026-05-06 00:04 25.25294 -77.63363 17660 ft 231 kts 322°
2026-05-06 00:05 25.27875 -77.65396 18584 ft 225 kts 322°
2026-05-06 00:05 25.29137 -77.66390 19002 ft 221 kts 321°
2026-05-06 00:05 25.30384 -77.67372 19425 ft 218 kts 321°
2026-05-06 00:06 25.31611 -77.68338 19858 ft 215 kts 321°
2026-05-06 00:06 25.32819 -77.69293 20296 ft 212 kts 321°
2026-05-06 00:06 25.34015 -77.70235 20741 ft 209 kts 320°
2026-05-06 00:06 25.35190 -77.71162 21202 ft 206 kts 320°
2026-05-06 00:07 25.36353 -77.72079 21654 ft 204 kts 320°
2026-05-06 00:07 25.37490 -77.72976 22123 ft 201 kts 320°
2026-05-06 00:07 25.38625 -77.73873 22597 ft 199 kts 319°
2026-05-06 00:07 25.39747 -77.74757 23080 ft 197 kts 319°
2026-05-06 00:08 25.40857 -77.75636 23568 ft 195 kts 319°
2026-05-06 00:08 25.41958 -77.76504 23984 ft 193 kts 319°
2026-05-06 00:08 25.42994 -77.77431 24397 ft 188 kts 308°
2026-05-06 00:08 25.43695 -77.78633 24824 ft 185 kts 299°
2026-05-06 00:09 25.44373 -77.79842 25270 ft 184 kts 301°
2026-05-06 00:09 25.45049 -77.81040 25699 ft 183 kts 300°
2026-05-06 00:09 25.45713 -77.82232 26136 ft 182 kts 300°
2026-05-06 00:09 25.46370 -77.83413 26562 ft 182 kts 301°
2026-05-06 00:10 25.47035 -77.84608 26991 ft 182 kts 301°
2026-05-06 00:10 25.47700 -77.85803 27429 ft 182 kts 301°
2026-05-06 00:10 25.48367 -77.87001 27878 ft 184 kts 301°
2026-05-06 00:10 25.49042 -77.88214 28336 ft 186 kts 301°
2026-05-06 00:11 25.49722 -77.89437 28801 ft 187 kts 301°
2026-05-06 00:11 25.50406 -77.90669 29273 ft 188 kts 301°
2026-05-06 00:11 25.51095 -77.91907 29756 ft 188 kts 301°
2026-05-06 00:11 25.51772 -77.93125 30213 ft 188 kts 302°
2026-05-06 00:12 25.52454 -77.94354 30623 ft 186 kts 302°
2026-05-06 00:12 25.53130 -77.95569 31042 ft 185 kts 302°
2026-05-06 00:12 25.53799 -77.96775 31452 ft 182 kts 302°
2026-05-06 00:12 25.54460 -77.97964 31878 ft 180 kts 303°
2026-05-06 00:13 25.55134 -77.99181 31985 ft 193 kts 303°
2026-05-06 00:13 25.55867 -78.00497 31996 ft 208 kts 302°
2026-05-06 00:13 25.56650 -78.01910 32000 ft 222 kts 302°
2026-05-06 00:13 25.57483 -78.03411 32001 ft 234 kts 302°
2026-05-06 00:14 25.58360 -78.04994 32003 ft 246 kts 302°
2026-05-06 00:14 25.59263 -78.06625 32003 ft 257 kts 302°
2026-05-06 00:14 25.60219 -78.08350 32003 ft 267 kts 302°
2026-05-06 00:14 25.61210 -78.10138 32003 ft 276 kts 302°
2026-05-06 00:15 25.62227 -78.11978 32002 ft 284 kts 302°
2026-05-06 00:15 25.63270 -78.13863 32001 ft 291 kts 302°
2026-05-06 00:15 25.64327 -78.15773 31999 ft 297 kts 302°
2026-05-06 00:16 25.66525 -78.19751 32000 ft 307 kts 302°
2026-05-06 00:16 25.68792 -78.23856 32000 ft 315 kts 302°
2026-05-06 00:17 25.71105 -78.28048 32000 ft 322 kts 302°
2026-05-06 00:17 25.73447 -78.32296 32002 ft 326 kts 302°
2026-05-06 00:18 25.75827 -78.36618 32002 ft 330 kts 302°
2026-05-06 00:18 25.78240 -78.41004 32002 ft 337 kts 302°
2026-05-06 00:19 25.80701 -78.45480 32006 ft 342 kts 302°
2026-05-06 00:19 25.83171 -78.49980 32006 ft 344 kts 302°
2026-05-06 00:20 25.85668 -78.54527 32002 ft 346 kts 302°
2026-05-06 00:20 25.88172 -78.59101 32002 ft 346 kts 302°
2026-05-06 00:21 25.90587 -78.63734 32001 ft 348 kts 297°
2026-05-06 00:21 25.92249 -78.68796 31991 ft 351 kts 288°
2026-05-06 00:22 25.93004 -78.74207 31988 ft 357 kts 278°
2026-05-06 00:22 25.93002 -78.79724 31987 ft 359 kts 275°
2026-05-06 00:23 25.93002 -78.85269 31990 ft 359 kts 275°
2026-05-06 00:23 25.92966 -78.90829 31990 ft 359 kts 275°
2026-05-06 00:24 25.92944 -78.96382 31992 ft 359 kts 275°
2026-05-06 00:24 25.92913 -79.01937 31992 ft 360 kts 275°
2026-05-06 00:25 25.92881 -79.07471 31990 ft 360 kts 275°
2026-05-06 00:25 25.92849 -79.13031 31990 ft 360 kts 275°
2026-05-06 00:26 25.92811 -79.18618 31990 ft 361 kts 275°
2026-05-06 00:26 25.92775 -79.24157 31990 ft 361 kts 275°
2026-05-06 00:27 25.92735 -79.29737 31992 ft 361 kts 275°
2026-05-06 00:27 25.92691 -79.35319 31992 ft 361 kts 275°
2026-05-06 00:28 25.92648 -79.40880 31993 ft 361 kts 275°
2026-05-06 00:28 25.92601 -79.46456 31993 ft 361 kts 275°
2026-05-06 00:29 25.92553 -79.52040 31993 ft 361 kts 275°
2026-05-06 00:29 25.92501 -79.57622 31993 ft 361 kts 275°
2026-05-06 00:30 25.92450 -79.63210 31992 ft 362 kts 275°
2026-05-06 00:30 25.92393 -79.68797 31992 ft 362 kts 275°
2026-05-06 00:31 25.92468 -79.74329 31990 ft 357 kts 281°
2026-05-06 00:31 25.93408 -79.79702 31983 ft 352 kts 290°
2026-05-06 00:32 25.95234 -79.84714 31991 ft 348 kts 300°
2026-05-06 00:32 25.97742 -79.89299 31989 ft 347 kts 304°
2026-05-06 00:33 26.00277 -79.93870 31991 ft 347 kts 304°
2026-05-06 00:33 26.02841 -79.98426 31987 ft 347 kts 304°
2026-05-06 00:34 26.05381 -80.02982 31985 ft 347 kts 304°
2026-05-06 00:34 26.07930 -80.07544 31985 ft 347 kts 304°
2026-05-06 00:35 26.10051 -80.11339 31985 ft 347 kts 304°
2026-05-06 00:35 26.11326 -80.13633 31794 ft 348 kts 304°
2026-05-06 00:35 26.12584 -80.15888 31426 ft 340 kts 304°
2026-05-06 00:35 26.13821 -80.18107 31071 ft 334 kts 303°
2026-05-06 00:36 26.15034 -80.20290 30717 ft 331 kts 303°
2026-05-06 00:36 26.16122 -80.22540 30368 ft 328 kts 300°
2026-05-06 00:36 26.17195 -80.24777 30008 ft 326 kts 301°
2026-05-06 00:36 26.18288 -80.26982 29603 ft 325 kts 301°
2026-05-06 00:37 26.19365 -80.29194 29204 ft 324 kts 300°
2026-05-06 00:37 26.20424 -80.31404 28814 ft 323 kts 300°
2026-05-06 00:37 26.21505 -80.33636 28428 ft 333 kts 300°
2026-05-06 00:37 26.22630 -80.35945 27957 ft 346 kts 300°
2026-05-06 00:38 26.23792 -80.38346 27462 ft 356 kts 300°
2026-05-06 00:38 26.24972 -80.40803 26992 ft 363 kts 299°
2026-05-06 00:38 26.26158 -80.43258 26522 ft 367 kts 299°
2026-05-06 00:38 26.27372 -80.45765 26052 ft 369 kts 299°
2026-05-06 00:39 26.28586 -80.48286 25582 ft 370 kts 299°
2026-05-06 00:39 26.29805 -80.50818 25122 ft 370 kts 298°
2026-05-06 00:39 26.31024 -80.53339 24718 ft 369 kts 298°
2026-05-06 00:39 26.32237 -80.55855 24335 ft 367 kts 298°
2026-05-06 00:40 26.33435 -80.58355 23977 ft 365 kts 298°
2026-05-06 00:40 26.34635 -80.60852 23590 ft 364 kts 298°
2026-05-06 00:40 26.35831 -80.63331 23142 ft 362 kts 298°
2026-05-06 00:40 26.37017 -80.65805 22702 ft 360 kts 298°
2026-05-06 00:41 26.38200 -80.68266 22272 ft 358 kts 298°
2026-05-06 00:41 26.39375 -80.70709 21847 ft 357 kts 298°
2026-05-06 00:41 26.40541 -80.73144 21428 ft 355 kts 298°
2026-05-06 00:41 26.41688 -80.75541 21019 ft 353 kts 298°
2026-05-06 00:42 26.42847 -80.77950 20608 ft 352 kts 298°
2026-05-06 00:42 26.43997 -80.80349 20207 ft 350 kts 298°
2026-05-06 00:42 26.45141 -80.82752 19781 ft 349 kts 298°
2026-05-06 00:42 26.46289 -80.85148 19372 ft 349 kts 298°
2026-05-06 00:43 26.47433 -80.87528 18962 ft 349 kts 298°
2026-05-06 00:43 26.48573 -80.89920 18560 ft 349 kts 298°
2026-05-06 00:43 26.49713 -80.92315 18131 ft 349 kts 299°
2026-05-06 00:43 26.50848 -80.94677 17676 ft 349 kts 299°
2026-05-06 00:44 26.51982 -80.97062 17232 ft 348 kts 298°
2026-05-06 00:44 26.53117 -80.99448 16808 ft 346 kts 299°
2026-05-06 00:44 26.54249 -81.01813 16390 ft 345 kts 299°
2026-05-06 00:44 26.55375 -81.04174 15985 ft 344 kts 298°
2026-05-06 00:45 26.56489 -81.06529 15621 ft 341 kts 298°
2026-05-06 00:45 26.57602 -81.08867 15267 ft 339 kts 298°
2026-05-06 00:45 26.58712 -81.11186 14913 ft 338 kts 298°
2026-05-06 00:45 26.59811 -81.13504 14579 ft 337 kts 298°
2026-05-06 00:46 26.60903 -81.15809 14236 ft 335 kts 298°
2026-05-06 00:46 26.61988 -81.18086 13900 ft 334 kts 298°
2026-05-06 00:46 26.63079 -81.20386 13525 ft 333 kts 298°
2026-05-06 00:46 26.64317 -81.22568 13135 ft 332 kts 309°
2026-05-06 00:47 26.65815 -81.24500 12756 ft 321 kts 310°
2026-05-06 00:47 26.67193 -81.26386 12384 ft 308 kts 307°
2026-05-06 00:47 26.68480 -81.28270 12012 ft 300 kts 307°
2026-05-06 00:47 26.69766 -81.30073 11647 ft 294 kts 309°
2026-05-06 00:48 26.71054 -81.31799 11294 ft 290 kts 309°
2026-05-06 00:48 26.72312 -81.33541 10935 ft 286 kts 308°
2026-05-06 00:48 26.73538 -81.35288 10588 ft 284 kts 308°
2026-05-06 00:48 26.74773 -81.37005 10237 ft 281 kts 308°
2026-05-06 00:49 26.76005 -81.38691 9889 ft 279 kts 308°
2026-05-06 00:49 26.77223 -81.40390 9509 ft 278 kts 307°
2026-05-06 00:49 26.78417 -81.42074 9133 ft 275 kts 308°
2026-05-06 00:49 26.79618 -81.43741 8749 ft 273 kts 308°
2026-05-06 00:50 26.80815 -81.45390 8419 ft 271 kts 308°
2026-05-06 00:50 26.81975 -81.47017 8226 ft 265 kts 307°
2026-05-06 00:50 26.83096 -81.48594 8129 ft 258 kts 308°
2026-05-06 00:50 26.84219 -81.50147 8023 ft 254 kts 308°
2026-05-06 00:51 26.85319 -81.51679 7913 ft 252 kts 307°
2026-05-06 00:51 26.86412 -81.53215 7802 ft 250 kts 308°
2026-05-06 00:51 26.87501 -81.54730 7696 ft 250 kts 308°
2026-05-06 00:51 26.88586 -81.56244 7585 ft 249 kts 307°
2026-05-06 00:52 26.89669 -81.57765 7482 ft 249 kts 307°
2026-05-06 00:52 26.90754 -81.59273 7378 ft 249 kts 307°
2026-05-06 00:52 26.91843 -81.60799 7273 ft 257 kts 307°
2026-05-06 00:52 26.92974 -81.62385 7190 ft 265 kts 307°
2026-05-06 00:53 26.94141 -81.64014 7110 ft 271 kts 307°
2026-05-06 00:53 26.95315 -81.65658 7026 ft 274 kts 308°
2026-05-06 00:53 26.96514 -81.67354 6944 ft 280 kts 308°
2026-05-06 00:53 26.97755 -81.69072 6869 ft 285 kts 309°
2026-05-06 00:54 26.99008 -81.70812 6795 ft 287 kts 308°
2026-05-06 00:54 27.00246 -81.72575 6718 ft 289 kts 308°
2026-05-06 00:54 27.01503 -81.74345 6645 ft 290 kts 309°
2026-05-06 00:54 27.02772 -81.76104 6567 ft 291 kts 309°
2026-05-06 00:55 27.04042 -81.77884 6486 ft 292 kts 308°
2026-05-06 00:55 27.05308 -81.79677 6413 ft 293 kts 308°
2026-05-06 00:55 27.06564 -81.81441 6322 ft 293 kts 309°
2026-05-06 00:55 27.07853 -81.83245 6255 ft 293 kts 309°
2026-05-06 00:56 27.09284 -81.84815 6161 ft 292 kts 324°
2026-05-06 00:56 27.10963 -81.86090 6088 ft 292 kts 327°
2026-05-06 00:56 27.12607 -81.87439 6015 ft 288 kts 322°
2026-05-06 00:56 27.14121 -81.88823 6010 ft 273 kts 322°
2026-05-06 00:57 27.15613 -81.90076 6006 ft 263 kts 325°
2026-05-06 00:57 27.17115 -81.91292 6002 ft 271 kts 324°
2026-05-06 00:57 27.18646 -81.92597 6003 ft 277 kts 323°
2026-05-06 00:57 27.20168 -81.93913 6003 ft 279 kts 323°
2026-05-06 00:58 27.21732 -81.95230 6005 ft 284 kts 324°
2026-05-06 00:58 27.23303 -81.96547 6004 ft 287 kts 324°
2026-05-06 00:58 27.24901 -81.97908 6014 ft 289 kts 322°
2026-05-06 00:58 27.26509 -81.99277 6012 ft 289 kts 322°
2026-05-06 00:59 27.28118 -82.00640 6013 ft 290 kts 323°
2026-05-06 00:59 27.29731 -82.02003 6011 ft 290 kts 323°
2026-05-06 00:59 27.31343 -82.03373 6012 ft 290 kts 322°
2026-05-06 00:59 27.32955 -82.04746 6012 ft 291 kts 322°
2026-05-06 01:00 27.34553 -82.06097 6012 ft 290 kts 322°
2026-05-06 01:00 27.36173 -82.07467 6012 ft 290 kts 322°
2026-05-06 01:00 27.37742 -82.08898 6010 ft 290 kts 318°
2026-05-06 01:00 27.39266 -82.10381 6008 ft 290 kts 320°
2026-05-06 01:01 27.40857 -82.11765 6009 ft 290 kts 322°
2026-05-06 01:01 27.42431 -82.13185 6008 ft 289 kts 319°
2026-05-06 01:01 27.43957 -82.14665 6009 ft 289 kts 318°
2026-05-06 01:01 27.45403 -82.16241 6004 ft 289 kts 314°
2026-05-06 01:02 27.46843 -82.17823 5566 ft 289 kts 316°
2026-05-06 01:02 27.48259 -82.19299 5108 ft 273 kts 317°
2026-05-06 01:02 27.49596 -82.20753 4646 ft 262 kts 315°
2026-05-06 01:02 27.50866 -82.22183 4159 ft 254 kts 316°
2026-05-06 01:03 27.52103 -82.23530 4000 ft 237 kts 317°
2026-05-06 01:03 27.53230 -82.24749 3996 ft 219 kts 316°
2026-05-06 01:03 27.54284 -82.25908 3994 ft 205 kts 316°
2026-05-06 01:03 27.55283 -82.27004 3989 ft 196 kts 316°
2026-05-06 01:04 27.56246 -82.28056 3926 ft 191 kts 316°
2026-05-06 01:04 27.57232 -82.29137 3707 ft 206 kts 317°
2026-05-06 01:04 27.58295 -82.30298 3496 ft 218 kts 316°
2026-05-06 01:04 27.59400 -82.31511 3340 ft 224 kts 317°
2026-05-06 01:05 27.60524 -82.32745 3179 ft 227 kts 317°
2026-05-06 01:05 27.61664 -82.33994 3015 ft 230 kts 317°
2026-05-06 01:05 27.62813 -82.35256 2841 ft 231 kts 317°
2026-05-06 01:05 27.63973 -82.36532 2673 ft 232 kts 317°
2026-05-06 01:06 27.65130 -82.37795 2606 ft 228 kts 317°
2026-05-06 01:06 27.66261 -82.39019 2605 ft 222 kts 321°
2026-05-06 01:06 27.67535 -82.39829 2598 ft 199 kts 339°
2026-05-06 01:06 27.68621 -82.40650 2587 ft 184 kts 309°
2026-05-06 01:07 27.69293 -82.41819 2585 ft 172 kts 304°
2026-05-06 01:07 27.69937 -82.42902 2586 ft 163 kts 307°
2026-05-06 01:07 27.70722 -82.43776 2587 ft 159 kts 324°
2026-05-06 01:07 27.71612 -82.44564 2592 ft 162 kts 324°
2026-05-06 01:08 27.72512 -82.45371 2602 ft 168 kts 324°
2026-05-06 01:08 27.73437 -82.46204 2607 ft 172 kts 323°
2026-05-06 01:08 27.74391 -82.47057 2608 ft 178 kts 324°
2026-05-06 01:08 27.75375 -82.47929 2611 ft 181 kts 324°
2026-05-06 01:09 27.76369 -82.48806 2610 ft 182 kts 324°
2026-05-06 01:09 27.77402 -82.49641 2608 ft 183 kts 330°
2026-05-06 01:09 27.78488 -82.50389 2608 ft 184 kts 331°
2026-05-06 01:09 27.79582 -82.51142 2609 ft 184 kts 330°
2026-05-06 01:10 27.80674 -82.51890 2612 ft 184 kts 330°
2026-05-06 01:10 27.81758 -82.52633 2607 ft 184 kts 330°
2026-05-06 01:10 27.82866 -82.53378 2610 ft 183 kts 330°
2026-05-06 01:10 27.83960 -82.54119 2611 ft 184 kts 331°
2026-05-06 01:11 27.85122 -82.54621 2598 ft 179 kts 359°
2026-05-06 01:11 27.86313 -82.54555 2588 ft 165 kts
2026-05-06 01:11 27.87422 -82.54515 2160 ft 144 kts
2026-05-06 01:11 27.88404 -82.54459 1699 ft 139 kts
2026-05-06 01:12 27.89345 -82.54430 1345 ft 133 kts 357°
2026-05-06 01:12 27.90258 -82.54420 1117 ft 128 kts
2026-05-06 01:12 27.91174 -82.54405 1035 ft 133 kts 356°
2026-05-06 01:12 27.92091 -82.54384 876 ft 131 kts 359°
2026-05-06 01:13 27.93037 -82.54349 702 ft 139 kts
2026-05-06 01:13 27.93989 -82.54308 546 ft 130 kts
2026-05-06 01:13 27.94884 -82.54274 394 ft 128 kts 359°
2026-05-06 01:13 27.95755 -82.54253 182 ft 122 kts 360°
2026-05-06 01:14 27.97091 -82.54208 34 ft 46 kts
2026-05-06 01:14 27.97444 -82.54198 30 ft 49 kts
2026-05-06 01:14 27.97603 -82.54124 26 ft 17 kts 109°